This demonstration page uses our WeatherBlox Daily Observations layout. Learn more.

Left ArrowRight Arrow

38.20091, -84.87328

Hourly Observations for April 17, 2020

Temp ( °F °C ) Dew Point ( °F °C ) Humidity (%) Winds ( mph kmh ) Pressure ( in mb ) Visibility ( mi km ) Precip ( " mm )
12:53 am 00:53 Clear 40 4.4 31 -0.6 70 70 Calm 30.26 1025 10 16 0.00 0.00
1:53 am 01:53 Mostly Clear 42 5.6 32 0 68 68 E 5 7 30.25 1024 10 16 0.00 0.00
2:53 am 02:53 Cloudy 43 6.1 31 -0.6 63 63 E 7 11 30.22 1023 10 16 0.00 0.00
3:53 am 03:53 Cloudy 45 7.2 29 -1.7 54 54 E 9 15 30.18 1022 10 16 0.00 0.00
4:53 am 04:53 Partly Cloudy 44 6.7 30 -1.1 58 58 E 8 13 30.16 1021 10 16 0.00 0.00
5:53 am 05:53 Mostly Clear 45 7.2 30 -1.1 56 56 ESE 6 9 30.14 1021 10 16 0.00 0.00
6:53 am 06:53 Mostly Cloudy 45 7.2 30 -1.1 56 56 ESE 9 15 30.12 1020 10 16 0.00 0.00
7:53 am 07:53 Mostly Cloudy 46 7.8 29 -1.7 51 51 ESE 7 11 30.12 1020 10 16 0.00 0.00
8:53 am 08:53 Cloudy 48 8.9 31 -0.6 52 52 SSE 7 11 30.11 1020 10 16 0.00 0.00
9:53 am 09:53 Mostly Cloudy 51 10.6 33 0.6 50 50 SSE 7 11 30.08 1019 10 16 0.00 0.00
10:53 am 10:53 Partly Cloudy 55 12.8 35 1.7 47 47 S 9 15 30.05 1018 10 16 0.00 0.00
11:53 am 11:53 Mostly Cloudy 61 16.1 36 2.2 39 39 SW 18 30 30.04 1017 10 16 0.00 0.00
12:53 pm 12:53 Cloudy 58 14.4 41 5 53 53 SW 12 19 30.01 1016 10 16 0.00 0.00
1:53 pm 13:53 Cloudy 59 15 40 4.4 49 49 SW 12 19 29.98 1015 10 16 0.00 0.00
2:53 pm 14:53 Cloudy 58 14.4 41 5 53 53 W 6 9 29.95 1014 10 16 0.00 0.00
3:53 pm 15:53 Cloudy with Light Rain 56 13.3 43 6.1 62 62 WNW 3 6 29.93 1013 10 16 0.00 0.00
4:53 pm 16:53 Cloudy 54 12.2 45 7.2 72 72 NW 8 13 29.91 1013 10 16 0.01 0.25
5:53 pm 17:53 Cloudy 54 12.2 45 7.2 72 72 WNW 9 15 29.91 1013 10 16 0.00 0.00
6:53 pm 18:53 Cloudy 53 11.7 47 8.3 80 80 W 8 13 29.92 1013 10 16 0.00 0.00
7:53 pm 19:53 Cloudy 52 11.1 48 8.9 86 86 W 7 11 29.91 1013 10 16 0.00 0.00
8:11 pm 20:11 Cloudy with Light Rain 52 11.1 48 8.9 86 86 WNW 7 11 29.92 1013 5 8 0.03 0.76
8:39 pm 20:39 Cloudy with Rain 52 11.1 48 8.9 86 86 W 10 17 29.93 1013 5 8 0.09 2.29
8:49 pm 20:49 Cloudy with Rain 52 11 46 8 82 82 WNW 9 15 29.92 1013 4 6 0.12 3.05
8:53 pm 20:53 Cloudy with Rain 51 10.6 48 8.9 89 89 WNW 8 13 29.91 1013 4 6 0.14 3.56
9:51 pm 21:51 Cloudy 50 10 46 8 88 88 W 5 7 29.92 1013 10 16 0.06 1.52
9:53 pm 21:53 Cloudy 50 10 47 8.3 89 89 WNW 5 7 29.91 1013 10 16 0.06 1.52
10:16 pm 22:16 Cloudy 50 10 47 8.3 89 89 VRB 5 7 29.92 1013 10 16 0.00 0.00
10:23 pm 22:23 Cloudy with Light Rain 50 10 47 8.3 89 89 WNW 5 7 29.92 1013 9 14 0.00 0.00
10:53 pm 22:53 Cloudy with Light Rain 50 10 46 7.8 86 86 NW 13 20 29.91 1013 6 10 0.01 0.25
11:39 pm 23:39 Cloudy with Light Rain 48 8.9 45 7.2 89 89 NW 12 19 29.92 1013 4 6 0.05 1.27
11:49 pm 23:49 Cloudy with Light Rain 48 9 45 7 87 87 NW 9 15 29.94 1014 8 13 0.05 1.27
11:53 pm 23:53 Cloudy with Light Rain 48 8.9 44 6.7 86 86 WNW 10 17 29.92 1013 9 14 0.06 1.52

Powered by AerisWeather